Location: Bailleul
(50.3375°N, 2.8513°E)
Time: 22:46:36
(UTC+00:00)

Daily predictions for brighter satellites

Satellite Brightness Start Highest point End
(mag) Time Altitude Azimuth Time Altitude Azimuth Time Altitude Azimuth
Cosmos 1953 Rocket 3.6 19:14:34 10° N 19:18:57 85° ENE 19:23:18 10° S
Meteor 2-10 Rocket 3.6 19:14:23 10° S 19:19:35 63° E 19:25:02 10° NNE
Cosmos 405 Rocket 3.9 19:16:48 10° N 19:20:19 28° ENE 19:23:45 10° SE
In-Cosmos 22 Rocket 4.5 19:15:52 10° NNW 19:21:44 82° W 19:27:33 10° S
ATLAS 2AS CENTAUR R/B 3.1 19:16:19 10° SSW 19:24:09 68° SE 19:31:51 10° NE
Cosmos 2098 Rocket 4.4 19:17:13 10° N 19:24:17 77° E 19:31:44 10° SSE
Lacrosse 5 rocket 2.5 19:20:26 10° W 19:24:20 45° NNW 19:28:30 10° NE
Cosmos 2237 Rocket 3.0 19:20:31 10° NNW 19:25:46 37° NE 19:30:58 10° ESE
USA 186 2.0 19:24:44 10° S 19:27:55 69° W 19:30:59 10° NNW
Cosmos 1689 Rocket 3.4 19:25:17 10° N 19:28:01 42° WNW 19:30:42 10° SW
Cosmos 2251 Rocket 4.1 19:23:47 10° SSE 19:28:38 36° ESE 19:33:29 10° NE
NOSS 0 Rocket 4.2 19:22:37 10° NNW 19:28:46 58° NE 19:34:55 10° SE
Cosmos 389 Rocket 4.1 19:27:06 10° SE 19:29:26 17° E 19:31:47 10° NE
Cosmos 1092 Rocket 4.0 19:23:44 10° N 19:30:03 79° E 19:36:15 10° SSE
Exosat Rocket 4.0 19:23:25 10° NNW 19:30:21 71° ENE 19:35:37 10° SE
SJ-6B 2.8 19:33:07 10° SSE 19:36:51 81° WSW 19:40:39 10° NNW
Ariane Rocket 3.0 19:32:22 10° SSE 19:37:23 72° ENE 19:42:27 10° NNW
BREEZE-M DEB (TANK) 3.5 19:34:49 10° SSW 19:38:01 18° SSE 19:39:40 12° ESE
IGS 5A 4.4 19:34:37 10° SE 19:38:17 31° ENE 19:41:57 10° N
SPOT 3 Rocket 4.1 19:33:29 10° SE 19:38:20 42° ENE 19:43:12 10° N
Cosmos 1892 3.4 19:35:24 10° NNW 19:39:07 55° W 19:42:48 10° S
Resurs 01 Rocket 2.2 19:36:34 10° SE 19:40:43 41° ENE 19:44:55 10° N
Cosmos 2227 Rocket 3.7 19:40:51 10° SE 19:44:03 16° E 19:47:16 10° ENE
MOS 1 4.3 19:39:12 10° SSE 19:44:50 85° ENE 19:50:32 10° NNW
Cosmos 1825 2.1 19:45:19 10° N 19:49:07 88° E 19:52:53 10° S
Cosmos 1408 3.3 19:46:06 10° NNW 19:49:35 52° W 19:53:03 10° S
Resurs 1-3 3.6 19:45:17 10° SSE 19:49:40 78° ENE 19:54:05 10° NNW
Cosmos 2297 Rocket 3.3 19:46:47 10° SSE 19:51:02 22° ESE 19:55:18 10° NE
IRS-1A Rocket 4.4 19:46:00 10° SSE 19:51:35 86° WSW 19:57:20 10° NNW
Cosmos 2333 Rocket 3.0 19:46:25 10° NW 19:52:00 52° WSW 19:57:32 10° S
Cosmos 44 3.5 19:48:15 10° SSW 19:53:16 56° ESE 19:58:33 10° NE
Cosmos 614 Rocket 4.3 19:49:30 10° S 19:54:18 41° ESE 19:59:06 10° NE
OPS 8737 4.5 19:52:12 10° NW 19:55:16 75° SW 19:58:31 14° SE
Cosmos 2219 4.3 19:51:09 10° SSE 19:55:19 22° E 19:59:30 10° NE
COSMOS 2487 3.1 19:52:51 10° SW 19:56:13 57° WNW 19:59:36 10° NNE
ATLAS 3B R/B 3.0 19:53:45 10° NW 20:00:43 71° SW 20:07:47 11° SSE
FALCON 9 DEB 3.4 20:01:20 10° SW 20:04:38 46° SSE 20:07:57 10° ENE
Genesis I 4.1 20:01:51 10° NNW 20:05:38 39° NE 20:08:23 17° ESE
Cosmos 2279 Rocket 4.0 20:00:34 10° S 20:06:37 59° E 20:12:42 10° NNE
USA 215 3.3 20:00:59 13° ESE 20:06:55 81° NNE 20:13:29 10° WNW
Cosmos 482 Debris 3.0 20:04:57 10° W 20:07:24 65° NNW 20:08:35 20° ENE
IRIDIUM 104 4.4 20:06:38 10° SSE 20:11:43 57° E 20:16:50 10° NNE
Cosmos 2026 Rocket 4.3 20:06:02 10° NNW 20:12:04 68° W 20:18:07 10° S
ERS-1 Rocket 4.1 20:14:28 17° ESE 20:17:22 29° ENE 20:21:40 10° N
Orbus 7S? 3.2 20:14:45 10° SW 20:17:41 79° SE 20:23:27 10° ENE
Cosmos 407 Rocket 4.0 20:14:54 10° S 20:19:36 38° ESE 20:24:22 10° NE
RESURS DK-1 2.5 20:16:16 10° SW 20:20:24 76° WNW 20:24:34 10° NNE
SL-16 R/B 3.1 20:15:15 10° NNW 20:20:32 37° NE 20:24:13 18° ESE
IRIDIUM 114 4.3 20:15:40 10° S 20:20:50 68° E 20:26:03 10° N
CZ-2C R/B 4.0 20:16:55 10° NNE 20:21:10 43° E 20:24:28 16° SSE
Cosmos 1980 3.7 20:15:46 10° NNW 20:21:31 86° ENE 20:25:48 18° SSE
Meteor 2-1 Rocket 4.4 20:16:16 10° SSW 20:22:07 84° W 20:28:07 10° N
Cosmos 1818 3.5 20:17:34 10° SSW 20:23:00 78° SE 20:28:31 10° NE
Cosmos 1356 3.8 20:21:55 10° NNW 20:25:18 61° W 20:28:01 15° S
Cosmos 2266 Rocket 4.2 20:23:19 10° N 20:29:40 60° ENE 20:34:06 20° SSE
IRIDIUM 103 4.3 20:24:46 10° S 20:29:58 80° E 20:35:13 10° N
SPOT 5 3.7 20:28:33 22° ESE 20:30:43 33° ENE 20:35:00 10° N
Cosmos 2058 4.4 20:27:33 10° NNW 20:31:25 37° W 20:35:16 10° SSW
COSMOS 2428 4.0 20:27:23 10° NW 20:32:36 37° WSW 20:37:46 10° S
Cosmos 1634 Rocket 4.5 20:26:39 10° SSW 20:32:52 63° WNW 20:39:05 10° N
Cosmos 1633 2.4 20:30:01 10° N 20:33:39 75° E 20:35:24 28° SSE
ARIANE 5 R/B 2.9 20:32:24 26° SE 20:34:39 51° ENE 20:38:54 10° N
Cosmos 909 Rocket 4.0 20:28:54 10° SSW 20:35:12 84° SE 20:41:47 10° NE
Terra 3.0 20:33:16 20° ESE 20:35:18 28° ENE 20:39:21 10° N
Cosmos 2344 3.5 20:29:28 10° SW 20:36:55 89° SE 20:45:05 10° NE
Meteor 2-3 Rocket 3.8 20:31:18 10° N 20:37:05 66° ENE 20:40:44 23° SSE
Cosmos 1455 4.2 20:35:25 10° SW 20:38:43 29° WNW 20:42:02 10° N
OBJECT-B 3.7 20:37:39 10° SW 20:39:30 14° W 20:41:22 10° NW
Cosmos-2242 3.3 20:37:38 26° SSE 20:39:43 47° E 20:43:53 10° NNE
Meteor 1-4 Rocket 4.2 20:41:49 19° ENE 20:41:49 19° ENE 20:43:46 10° NE
Cosmos 2219 Rocket 4.0 20:36:28 10° NW 20:41:10 27° WSW 20:45:49 10° SSW
Cosmos 1140 Rocket 3.6 20:36:41 12° S 20:41:14 50° ESE 20:46:11 10° NNE
Timation 2 Rocket 4.3 20:38:16 10° S 20:44:29 46° ESE 20:50:28 10° NE
USA 245 3.0 20:44:17 32° SSE 20:45:57 79° ENE 20:49:10 10° NNW
Spot 2 Rocket 3.5 20:44:16 26° SSE 20:47:09 71° ENE 20:52:14 10° N
IRIDIUM 106 4.5 20:43:04 10° S 20:48:17 74° W 20:53:32 10° N
ATLAS 5 CENTAUR R/B 4.3 20:45:52 10° WNW 20:49:13 20° N 20:52:57 10° NE
Cosmos 2151 3.1 20:47:23 10° NNW 20:51:43 77° W 20:54:07 26° S
CZ-4C R/B 4.2 20:50:35 10° W 20:55:30 30° NNW 21:01:21 10° NE
Cosmos 1655 Rocket 4.1 20:56:25 10° NNW 21:02:42 74° W 21:07:15 20° S
Cosmos 389 Rocket 3.9 21:00:27 10° SW 21:03:46 38° WNW 21:07:09 10° N
Lacrosse 5 rocket 3.0 21:00:22 10° WNW 21:04:13 33° N 21:08:08 11° ENE
Cosmos 2221 4.0 21:05:30 22° ENE 21:05:30 22° ENE 21:08:20 10° NE
Cosmos 1812 Rocket 4.3 21:04:27 10° SSW 21:08:48 53° WNW 21:13:12 10° N
BREEZE M DEB (TANK) 2.1 21:02:48 10° WSW 21:09:26 64° S 21:09:52 57° SE
Cosmos 2237 Rocket 2.9 21:04:35 10° NW 21:09:59 47° WSW 21:13:12 23° S
SPOT 1/Viking Rocket 3.9 21:07:32 23° S 21:10:44 61° WSW 21:15:56 10° NNW
Cosmos 1869 3.4 21:11:03 52° ESE 21:11:23 54° E 21:15:16 10° NNE
Cosmos 1190 Rocket 3.9 21:09:55 16° SSW 21:14:08 80° ESE 21:19:23 10° NNE
ATLAS 2AS CENTAUR R/B 4.0 21:08:01 10° WSW 21:15:36 48° NNW 21:22:58 10° NE
Resurs 01 Rocket 3.5 21:13:40 10° SSW 21:17:21 26° W 21:21:08 10° NW
Okean 3 Rocket 3.5 21:14:25 10° N 21:18:59 87° ENE 21:20:14 48° SSE
Cosmos 1766 Rocket 3.4 21:15:33 10° N 21:19:54 89° ENE 21:20:58 51° S
Cosmos 1763 Rocket 3.7 21:16:52 10° NNW 21:21:53 56° ENE 21:23:15 42° ESE
COSMOS 2455 3.1 21:20:46 38° SSE 21:22:07 44° ESE 21:27:47 10° NE
CARTOSAT-1 3.7 21:20:55 40° S 21:22:19 67° WSW 21:26:38 10° NNW
BREEZE-M DEB (TANK) 4.5 21:16:59 10° W 21:22:20 87° S 21:45:57 10° E
Cosmos 2263 Rocket 4.0 21:25:51 15° E 21:25:51 15° E 21:27:47 10° ENE
Cosmos 2082 3.9 21:24:17 42° SE 21:25:18 47° ESE 21:30:41 10° NE
Cosmos 2227 Rocket 2.1 21:21:56 12° SSW 21:27:15 85° ESE 21:32:56 10° NNE
Meteor 2-15 4.5 21:25:35 39° SSE 21:27:36 58° E 21:33:32 10° NNE
Cosmos 676 Rocket 3.9 21:30:06 42° S 21:31:49 70° ESE 21:36:59 10° NNE
Cosmos 2297 Rocket 2.4 21:28:53 10° SW 21:34:31 71° WNW 21:40:13 10° NNE
Cosmos 44 Rocket 4.0 21:37:25 39° E 21:37:25 39° E 21:41:26 10° NE
Timation 1 Rocket 4.3 21:35:59 40° S 21:37:59 61° ESE 21:43:52 10° NE
Cosmos 540 Rocket 4.0 21:33:28 10° NNW 21:38:24 45° ENE 21:39:29 39° E
Cosmos 2219 3.4 21:33:18 10° SW 21:38:54 72° WNW 21:44:33 10° NNE
NOSS 3-1 (C) 4.1 21:33:28 10° NW 21:40:42 74° NE 21:44:44 34° ESE
FALCON 9 DEB 3.6 21:38:06 10° W 21:41:19 60° NNW 21:41:19 60° NNW
Genesis I 4.4 21:39:32 10° WNW 21:43:09 32° WSW 21:43:16 32° SW
USA 215 3.8 21:48:19 34° S 21:50:17 42° SW 21:56:28 10° WNW
STPSAT 2 (USA 217) 4.5 21:46:19 10° NNW 21:50:51 76° WSW 21:51:13 71° SSW
ERS-1 Rocket 3.7 21:54:27 36° SW 21:55:59 47° W 22:00:50 10° NNW
Cosmos 1862 3.3 21:53:13 10° N 21:56:54 76° NNW 21:56:54 76° NNW
H-2A R/B 3.5 21:56:06 10° NNE 22:00:20 76° WNW 22:00:33 73° WSW
SL-16 R/B 2.7 21:59:22 10° NW 22:04:50 48° WSW 22:06:06 41° SSW
Cosmos 1842 Rocket 3.5 22:06:37 84° NE 22:06:37 84° NE 22:11:00 10° N
SPOT 5 3.9 22:07:47 31° WSW 22:08:47 35° W 22:13:09 10° NNW
Cosmos 1741 Rocket 4.1 22:12:52 60° E 22:12:52 60° E 22:17:54 10° NNE
Terra 2.5 22:12:08 41° SW 22:12:52 45° W 22:17:27 10° NNW
Cosmos 921 Rocket 3.4 22:09:28 10° NNW 22:13:36 56° NE 22:13:36 56° NE
Meteor 1-4 Rocket 4.1 22:15:56 31° WNW 22:15:57 31° WNW 22:19:08 10° N
Cosmos 2084 Rocket 3.8 22:16:46 56° NW 22:16:58 57° NW 22:21:02 10° NE
Cosmos 1850 Rocket 3.9 22:17:42 68° E 22:17:42 68° E 22:22:48 10° NNE
Cosmos 1745 Rocket 3.9 22:14:20 10° N 22:20:43 78° E 22:21:55 60° SSE
SeaSat 1 2.9 22:17:16 10° NE 22:21:11 46° ENE 22:21:11 46° ENE
Cosmos 1408 Rocket 4.4 22:18:22 10° NNW 22:22:26 41° W 22:22:33 41° W
Cosmos 1709 Rocket 4.2 22:20:11 10° N 22:26:18 53° ENE 22:27:15 49° ESE
Cosmos 1805 Rocket 3.9 22:24:23 10° N 22:28:09 61° NNE 22:28:09 61° NNE
TSX-5 4.4 22:31:01 60° NNE 22:31:01 60° NNE 22:34:15 10° NNE
Cosmos 2208 Rocket 4.1 22:25:07 10° NNW 22:30:26 64° ENE 22:30:49 62° E
Aureole 1 Rocket 3.4 22:33:07 75° ESE 22:33:07 75° ESE 22:37:46 10° NNE
Cosmos 1943 3.0 22:28:03 10° NNW 22:33:44 81° ENE 22:34:14 73° ESE
S3M 3.9 22:34:13 63° SSE 22:35:16 78° E 22:41:41 10° NNE
ATLAS 5 CENTAUR R/B 4.3 22:31:48 10° NW 22:35:33 21° NNE 22:39:48 10° ENE
Sich 1 3.5 22:31:47 10° N 22:35:16 53° NNE 22:35:16 53° NNE
Cosmos 1743 Rocket 4.2 22:34:41 10° NNW 22:38:29 49° WNW 22:38:29 49° WNW
Cosmos 2221 3.4 22:42:19 42° WNW 22:42:20 42° WNW 22:46:25 10° N
Lacrosse 5 rocket 2.0 22:39:42 10° NW 22:43:43 56° N 22:43:43 56° N
USA 281 4.3 22:42:09 24° E 22:45:15 36° NE 22:51:09 10° NNW
USA 229 DEB 3.8 22:41:07 10° NW 22:48:23 77° SW 22:50:01 58° SSE
USA 229 3.8 22:41:13 10° NW 22:48:29 78° SW 22:50:08 58° SSE
Cosmos 1633 Rocket 3.9 22:47:23 10° N 22:50:48 43° NE 22:50:48 43° NE
Cosmos 1606 4.1 22:53:32 37° NNW 22:53:32 37° NNW 22:56:03 10° N
Cosmos 841 Rocket 3.8 22:47:48 10° NNW 22:52:43 56° W 22:52:43 56° W
Spot 4 4.0 22:58:26 67° WNW 22:58:26 67° WNW 23:02:56 10° NNW
Cosmos 1666 Rocket 4.1 22:55:08 10° N 22:58:48 56° NNE 22:58:48 56° NNE
Cosmos 1814 Rocket 4.2 22:57:37 10° NNW 23:02:37 64° W 23:02:37 64° W
NOSS 3-1 (A) 4.0 22:58:53 10° NW 23:06:15 70° SW 23:07:58 56° S
Cosmos 2263 Rocket 2.0 23:07:30 89° WNW 23:07:30 89° WNW 23:13:07 10° NNE
COSMOS 2455 3.7 23:03:48 18° WSW 23:08:04 47° NW 23:13:54 10° NNE
ALOS 2 3.2 23:10:43 56° NNW 23:10:43 56° NNW 23:14:13 10° NNW
COBE Rocket 4.3 23:11:50 55° NE 23:11:50 55° NE 23:16:14 10° N
Cosmos 2227 Rocket 4.3 23:07:28 10° W 23:12:02 24° NW 23:16:36 10° NNE
Meteor 1-14 Rocket 4.4 23:10:52 10° N 23:16:52 66° ENE 23:17:17 64° E
Cosmos 44 Rocket 4.4 23:16:01 29° W 23:18:08 44° NW 23:23:09 10° NNE
Cosmos 1603 4.2 23:13:39 10° NW 23:18:48 47° W 23:18:48 47° W
Cosmos 1844 Rocket 4.0 23:22:25 28° E 23:22:25 28° E 23:26:04 10° NE
Cosmos 1151 Rocket 3.9 23:34:05 47° N 23:34:05 47° N 23:37:13 10° N
Cosmos 1437 Rocket 4.5 23:34:14 30° NNW 23:34:14 30° NNW 23:36:34 10° N
Meteor 1-5 Rocket 4.3 23:29:58 10° N 23:35:43 65° ENE 23:35:52 64° E
Cosmos 2184 Rocket 4.0 23:32:20 10° N 23:38:42 69° ENE 23:39:21 64° ESE
Cosmos 2315 Rocket 4.0 23:38:07 64° WSW 23:38:52 71° WNW 23:45:15 10° N
NOSS 2-2 (C) 4.4 23:34:13 10° NW 23:39:17 73° NE 23:40:17 60° E
NOSS 2-2 (E) 4.3 23:36:01 10° NW 23:41:17 84° NE 23:42:00 71° ESE
Helios 1A 4.4 23:54:16 33° NE 23:54:16 33° NE 23:57:42 10° N
CZ-2D R/B 4.4 23:52:48 10° ENE 23:55:24 13° E 23:56:22 13° E
